Weather History for Westhampton Beach, NY

Change the Weather History Date:

Wednesday, March 19, 2014

  Actual Average Record
Temperature  
Mean Temperature 34 °F -  
Max Temperature 46 °F 44 °F 66 °F (2012)
Min Temperature 26 °F 27 °F 17 °F (2005)
Degree Days  
Heating Degree Days 31    
Moisture  
Dew Point 30 °F    
Average Humidity 76    
Maximum Humidity 93    
Minimum Humidity 62    
Precipitation  
Precipitation 0.07 in - - ()
Sea Level Pressure  
Sea Level Pressure 30.18 in    
Wind  
Wind Speed 8 mph (East)    
Max Wind Speed 17 mph    
Max Gust Speed 25 mph    
Visibility 9 miles    
Events Rain    
Averages and records for this station are not official NWS values.
T = Trace of Precipitation, MM = Missing Value Source: NWS Daily Summary

Daily Weather History Graph

Daily Weather History Graph

Search for Another Location

Airport:

Trip Planner

Search our weather history database for the weather conditions in past years. The results will help you decide how hot, cold, wet, or windy it might be!

Date:

Astronomy

Mar. 19, 2014 Rise Set
Actual Time 6:55 AM EDT 7:01 PM EDT
Civil Twilight 6:28 AM EDT 7:28 PM EDT
Nautical Twilight 5:56 AM EDT 8:00 PM EDT
Astronomical Twilight 5:23 AM EDT 8:33 PM EDT
Moon 10:18 PM EDT (3/19) 8:18 AM EDT (3/19)
Length of Visible Light 13h 00m
Length of Day
12h 05m
Waning Gibbous, 91% of the Moon is Illuminated
Mar 19
Waning Gibbous
Mar 23
Last Quarter
Mar 30
New
Apr 7
First Quarter
Apr 15
Full

Hourly Weather History & Observations

Time (EDT) Temp. Windchill Dew Point Humidity Pressure Visibility Wind Dir Wind Speed Gust Speed Precip Events Conditions
12:53 AM 30.0 °F 25.2 °F 21.9 °F 72% 30.31 in 10.0 mi ENE 4.6 mph - N/A   Clear
1:53 AM 27.0 °F 21.6 °F 21.0 °F 78% 30.30 in 10.0 mi NE 4.6 mph - N/A   Clear
2:53 AM 28.0 °F 21.7 °F 21.9 °F 78% 30.30 in 10.0 mi NE 5.8 mph - N/A   Clear
3:53 AM 27.0 °F 21.6 °F 21.0 °F 78% 30.29 in 10.0 mi NE 4.6 mph - N/A   Clear
4:53 AM 28.0 °F 21.7 °F 21.9 °F 78% 30.30 in 10.0 mi NE 5.8 mph - N/A   Clear
5:53 AM 26.1 °F 20.5 °F 21.0 °F 81% 30.33 in 10.0 mi NNE 4.6 mph - N/A   Clear
6:53 AM 27.0 °F 20.5 °F 21.9 °F 81% 30.35 in 10.0 mi NE 5.8 mph - N/A   Clear
7:53 AM 32.0 °F 25.6 °F 27.0 °F 82% 30.35 in 10.0 mi ENE 6.9 mph - N/A   Clear
8:53 AM 37.0 °F 29.8 °F 28.0 °F 70% 30.33 in 10.0 mi East 10.4 mph - N/A   Partly Cloudy
9:53 AM 39.0 °F 31.4 °F 28.0 °F 65% 30.32 in 10.0 mi ESE 12.7 mph 21.9 mph N/A   Overcast
10:53 AM 39.9 °F 33.9 °F 30.0 °F 68% 30.31 in 10.0 mi ESE 9.2 mph 25.3 mph N/A   Overcast
11:53 AM 39.9 °F 32.5 °F 28.0 °F 63% 30.30 in 10.0 mi East 12.7 mph 23.0 mph N/A   Overcast
12:53 PM 41.0 °F 33.5 °F 28.9 °F 62% 30.27 in 10.0 mi ESE 13.8 mph 24.2 mph N/A   Overcast
1:53 PM 42.1 °F 34.5 °F 30.0 °F 62% 30.25 in 10.0 mi ESE 15.0 mph 24.2 mph N/A   Overcast
2:53 PM 42.1 °F 34.9 °F 30.9 °F 65% 30.21 in 10.0 mi East 13.8 mph 24.2 mph N/A   Overcast
3:53 PM 42.1 °F 33.9 °F 32.0 °F 67% 30.17 in 10.0 mi ESE 17.3 mph 24.2 mph N/A   Mostly Cloudy
4:53 PM 39.9 °F 31.8 °F 30.9 °F 70% 30.14 in 10.0 mi East 15.0 mph 23.0 mph N/A   Overcast
5:53 PM 39.9 °F 33.9 °F 30.9 °F 70% 30.12 in 10.0 mi East 9.2 mph 25.3 mph N/A   Overcast
6:15 PM 39.2 °F 31.2 °F 32.0 °F 75% 30.11 in 10.0 mi ESE 13.8 mph 23.0 mph N/A   Overcast
6:53 PM 39.0 °F 31.4 °F 32.0 °F 76% 30.08 in 10.0 mi ESE 12.7 mph 23.0 mph N/A   Overcast
7:53 PM 39.9 °F 33.4 °F 34.0 °F 79% 30.04 in 10.0 mi ESE 10.4 mph 23.0 mph N/A   Overcast
8:43 PM 39.2 °F 31.6 °F 35.6 °F 87% 30.02 in 8.0 mi ESE 12.7 mph 21.9 mph 0.00 in Rain Light Rain
8:53 PM 39.9 °F 32.9 °F 36.0 °F 86% 30.02 in 8.0 mi ESE 11.5 mph 19.6 mph 0.00 in Rain Light Rain
9:53 PM 41.0 °F 33.9 °F 37.9 °F 89% 29.95 in 7.0 mi ESE 12.7 mph 19.6 mph 0.00 in   Overcast
10:53 PM 42.1 °F 36.1 °F 39.0 °F 89% 29.93 in 5.0 mi East 10.4 mph 16.1 mph 0.03 in Rain Light Rain
11:19 PM 42.8 °F 37.5 °F 39.2 °F 87% 29.92 in 5.0 mi East 9.2 mph - 0.02 in Rain Light Rain
11:53 PM 43.0 °F 37.7 °F 41.0 °F 93% 29.88 in 4.0 mi East 9.2 mph 21.9 mph 0.04 in Rain Light Rain